| time (UTC) | temp F | wind direction | speed MPH | gust MPH | rain 1hr in | rain 24hr in | rain mn in | humidity % | barometer mb |
| 20260831144529 | 82 | 294 | 1.0 | 4.0 | 0.00 | 0.00 | 0.00 | 60 | 1017.6 |
| 20260831143531 | 82 | 282 | 2.0 | 2.0 | 0.00 | 0.00 | 0.00 | 60 | 1017.6 |
| 20260831142532 | 81 | 278 | 1.0 | 2.0 | 0.00 | 0.00 | 0.00 | 62 | 1017.6 |
| 20260831141517 | 80 | 287 | 2.0 | 3.0 | 0.00 | 0.00 | 0.00 | 63 | 1017.6 |
| 20260831140516 | 80 | 265 | 1.0 | 2.0 | 0.00 | 0.00 | 0.00 | 64 | 1017.6 |
| 20260831135530 | 79 | 264 | 1.0 | 2.0 | 0.00 | 0.00 | 0.00 | 64 | 1017.6 |
| 20260831134532 | 79 | 267 | 1.0 | 2.0 | 0.00 | 0.00 | 0.00 | 64 | 1017.5 |
| 20260831133530 | 78 | 278 | 2.0 | 3.0 | 0.00 | 0.00 | 0.00 | 65 | 1017.6 |
| 20260831132530 | 78 | 277 | 2.0 | 3.0 | 0.00 | 0.00 | 0.00 | 65 | 1017.5 |
| 20260831131530 | 78 | 272 | 2.0 | 3.0 | 0.00 | 0.00 | 0.00 | 66 | 1017.4 |
| 20260831130517 | 78 | 281 | 2.0 | 2.0 | 0.00 | 0.00 | 0.00 | 66 | 1017.4 |
| 20260831125518 | 77 | 275 | 2.0 | 3.0 | 0.00 | 0.00 | 0.00 | 66 | 1017.3 |
| 20260831124518 | 77 | 272 | 2.0 | 3.0 | 0.00 | 0.00 | 0.00 | 67 | 1017.2 |
| 20260831123518 | 75 | 277 | 2.0 | 2.0 | 0.00 | 0.00 | 0.00 | 69 | 1017.2 |
| 20260831122518 | 74 | 271 | 1.0 | 2.0 | 0.00 | 0.00 | 0.00 | 71 | 1017.0 |
| 20260831121518 | 74 | 276 | 1.0 | 2.0 | 0.00 | 0.00 | 0.00 | 73 | 1016.9 |
| 20260831120518 | 74 | 303 | 1.0 | 2.0 | 0.00 | 0.00 | 0.00 | 72 | 1016.9 |
| 20260831115518 | 74 | 282 | 2.0 | 2.0 | 0.00 | 0.00 | 0.00 | 72 | 1016.8 |
| 20260831114518 | 74 | 276 | 1.0 | 2.0 | 0.00 | 0.00 | 0.00 | 72 | 1016.7 |
| 20260831113518 | 74 | 279 | 2.0 | 3.0 | 0.00 | 0.00 | 0.00 | 71 | 1016.7 |
| 20260831112518 | 74 | 274 | 1.0 | 2.0 | 0.00 | 0.00 | 0.00 | 71 | 1016.6 |
| 20260831111559 | 74 | 297 | 1.0 | 2.0 | 0.00 | 0.00 | 0.00 | 71 | 1016.7 |
| 20260831110559 | 75 | 282 | 1.0 | 2.0 | 0.00 | 0.00 | 0.00 | 70 | 1016.6 |
| 20260831105519 | 75 | 285 | 1.0 | 2.0 | 0.00 | 0.00 | 0.00 | 70 | 1016.6 |
| 20260831104519 | 75 | 282 | 0.0 | 2.0 | 0.00 | 0.00 | 0.00 | 69 | 1016.7 |
| 20260831103519 | 75 | 288 | 1.0 | 1.0 | 0.00 | 0.00 | 0.00 | 69 | 1016.6 |
| 20260831102519 | 75 | 275 | 1.0 | 2.0 | 0.00 | 0.00 | 0.00 | 68 | 1016.5 |
| 20260831101519 | 75 | 314 | 1.0 | 1.0 | 0.00 | 0.00 | 0.00 | 68 | 1016.5 |
| 20260831100519 | 75 | 272 | 1.0 | 2.0 | 0.00 | 0.00 | 0.00 | 68 | 1016.5 |
| 20260831095520 | 75 | 301 | 1.0 | 1.0 | 0.00 | 0.00 | 0.00 | 68 | 1016.4 |
| 20260831094519 | 75 | 284 | 1.0 | 2.0 | 0.00 | 0.00 | 0.00 | 68 | 1016.5 |
| 20260831093519 | 75 | 297 | 1.0 | 1.0 | 0.00 | 0.00 | 0.00 | 69 | 1016.5 |
| 20260831092520 | 75 | 285 | 1.0 | 2.0 | 0.00 | 0.00 | 0.00 | 68 | 1016.4 |
| 20260831091520 | 76 | 276 | 0.0 | 1.0 | 0.00 | 0.00 | 0.00 | 68 | 1016.3 |
| 20260831090520 | 76 | 294 | 1.0 | 1.0 | 0.00 | 0.00 | 0.00 | 68 | 1016.2 |
| 20260831085520 | 76 | 291 | 1.0 | 2.0 | 0.00 | 0.00 | 0.00 | 68 | 1016.2 |
| 20260831084520 | 76 | 278 | 0.0 | 1.0 | 0.00 | 0.00 | 0.00 | 68 | 1016.1 |
| 20260831083614 | 76 | 280 | 1.0 | 1.0 | 0.00 | 0.00 | 0.00 | 68 | 1016.0 |
| 20260831082606 | 0 | 267 | 1.0 | 1.0 | 0.00 | 0.00 | 0.00 | ||
| 20260831081521 | 76 | 298 | 1.0 | 1.0 | 0.00 | 0.00 | 0.00 | 67 | 1015.8 |
| 20260831080601 | 76 | 285 | 1.0 | 2.0 | 0.00 | 0.00 | 0.00 | 67 | 1015.8 |
| 20260831074519 | 77 | 291 | 1.0 | 2.0 | 0.00 | 0.00 | 0.00 | 67 | 1015.8 |
| 20260831073519 | 77 | 285 | 1.0 | 2.0 | 0.00 | 0.00 | 0.00 | 67 | 1015.9 |
| 20260831072519 | 77 | 277 | 1.0 | 2.0 | 0.00 | 0.00 | 0.00 | 67 | 1015.9 |
| 20260831071522 | 77 | 291 | 1.0 | 2.0 | 0.00 | 0.00 | 0.00 | 68 | 1016.0 |
| 20260831070519 | 77 | 286 | 1.0 | 2.0 | 0.00 | 0.00 | 0.00 | 68 | 1016.0 |
| 20260831065519 | 77 | 286 | 1.0 | 3.0 | 0.00 | 0.00 | 0.00 | 67 | 1016.1 |
| 20260831064519 | 77 | 282 | 1.0 | 2.0 | 0.00 | 0.00 | 0.00 | 67 | 1016.1 |
| 20260831063519 | 77 | 284 | 1.0 | 2.0 | 0.00 | 0.00 | 0.00 | 66 | 1016.2 |
| 20260831062520 | 78 | 290 | 1.0 | 2.0 | 0.00 | 0.00 | 0.00 | 66 | 1016.2 |
| 20260831061516 | 78 | 285 | 1.0 | 2.0 | 0.00 | 0.00 | 0.00 | 65 | 1016.3 |
| 20260831060517 | 78 | 285 | 1.0 | 3.0 | 0.00 | 0.00 | 0.00 | 65 | 1016.3 |
| 20260831055520 | 78 | 290 | 1.0 | 3.0 | 0.00 | 0.00 | 0.00 | 65 | 1016.2 |
| 20260831054520 | 78 | 292 | 0.0 | 2.0 | 0.00 | 0.00 | 0.00 | 64 | 1016.2 |
| 20260831053517 | 78 | 291 | 1.0 | 2.0 | 0.00 | 0.00 | 0.00 | 64 | 1016.3 |
| 20260831052557 | 79 | 290 | 1.0 | 2.0 | 0.00 | 0.00 | 0.00 | 64 | 1016.2 |
| 20260831051517 | 79 | 289 | 1.0 | 2.0 | 0.00 | 0.00 | 0.00 | 63 | 1016.2 |
| 20260831050520 | 79 | 293 | 1.0 | 2.0 | 0.00 | 0.00 | 0.00 | 63 | 1016.2 |
| 20260831045517 | 80 | 283 | 1.0 | 2.0 | 0.00 | 0.00 | 0.00 | 62 | 1016.1 |
| 20260831044518 | 80 | 279 | 1.0 | 2.0 | 0.00 | 0.00 | 0.00 | 61 | 1016.0 |
| 20260831043517 | 80 | 286 | 1.0 | 2.0 | 0.00 | 0.00 | 0.00 | 60 | 1015.9 |
| 20260831042518 | 81 | 285 | 1.0 | 2.0 | 0.00 | 0.00 | 0.00 | 60 | 1016.0 |
| 20260831041524 | 81 | 287 | 1.0 | 2.0 | 0.00 | 0.00 | 0.00 | 59 | 1016.0 |
| 20260831040518 | 81 | 294 | 1.0 | 2.0 | 0.00 | 0.00 | 0.00 | 59 | 1015.9 |
| 20260831035558 | 81 | 274 | 0.0 | 2.0 | 0.00 | 0.00 | 0.00 | 59 | 1015.9 |
| 20260831034519 | 81 | 286 | 1.0 | 2.0 | 0.00 | 0.00 | 0.00 | 58 | 1016.0 |
| 20260831033518 | 81 | 287 | 0.0 | 2.0 | 0.00 | 0.00 | 0.00 | 58 | 1015.9 |
| 20260831032519 | 82 | 290 | 1.0 | 2.0 | 0.00 | 0.00 | 0.00 | 58 | 1015.8 |
| 20260831031519 | 82 | 286 | 1.0 | 3.0 | 0.00 | 0.00 | 0.00 | 57 | 1015.9 |
| 20260831030519 | 82 | 287 | 1.0 | 2.0 | 0.00 | 0.00 | 0.00 | 57 | 1015.8 |
| 20260831025559 | 82 | 292 | 1.0 | 3.0 | 0.00 | 0.00 | 0.00 | 56 | 1015.8 |
| 20260831024520 | 82 | 294 | 1.0 | 4.0 | 0.00 | 0.00 | 0.00 | 56 | 1015.9 |
| 20260831023519 | 83 | 284 | 1.0 | 2.0 | 0.00 | 0.00 | 0.00 | 56 | 1015.8 |
| 20260831022516 | 83 | 284 | 1.0 | 3.0 | 0.00 | 0.00 | 0.00 | 56 | 1015.7 |
| 20260831021519 | 83 | 282 | 1.0 | 2.0 | 0.00 | 0.00 | 0.00 | 55 | 1015.6 |
| 20260831020520 | 84 | 289 | 0.0 | 2.0 | 0.00 | 0.00 | 0.00 | 55 | 1015.6 |
| 20260831015519 | 84 | 289 | 1.0 | 2.0 | 0.00 | 0.00 | 0.00 | 54 | 1015.6 |
| 20260831014520 | 84 | 288 | 1.0 | 2.0 | 0.00 | 0.00 | 0.00 | 54 | 1015.5 |
| 20260831013607 | 85 | 285 | 1.0 | 2.0 | 0.00 | 0.00 | 0.00 | 53 | 1015.4 |
| 20260831012517 | 85 | 290 | 0.0 | 2.0 | 0.00 | 0.00 | 0.00 | 53 | 1015.3 |
| 20260831011520 | 86 | 281 | 0.0 | 2.0 | 0.00 | 0.00 | 0.00 | 52 | 1015.2 |
| 20260831010520 | 86 | 287 | 1.0 | 2.0 | 0.00 | 0.00 | 0.00 | 52 | 1015.1 |
| 20260831005520 | 87 | 291 | 0.0 | 2.0 | 0.00 | 0.00 | 0.00 | 51 | 1015.1 |
| 20260831004517 | 88 | 289 | 1.0 | 2.0 | 0.00 | 0.00 | 0.00 | 50 | 1015.0 |
| 20260831003558 | 88 | 295 | 0.0 | 2.0 | 0.00 | 0.00 | 0.00 | 48 | 1014.9 |
| 20260831002520 | 89 | 296 | 0.0 | 2.0 | 0.00 | 0.00 | 0.00 | 47 | 1014.9 |
| 20260831001518 | 89 | 298 | 1.0 | 4.0 | 0.00 | 0.00 | 0.00 | 47 | 1014.9 |
| 20260831000518 | 90 | 274 | 1.0 | 3.0 | 0.00 | 0.00 | 0.00 | 46 | 1014.9 |
| 20260830235518 | 90 | 296 | 0.0 | 3.0 | 0.00 | 0.00 | 0.00 | 45 | 1014.9 |
| 20260830234518 | 91 | 279 | 0.0 | 2.0 | 0.00 | 0.00 | 0.00 | 44 | 1015.0 |
| 20260830233518 | 91 | 283 | 0.0 | 2.0 | 0.00 | 0.00 | 0.00 | 43 | 1015.1 |
| 20260830232519 | 92 | 281 | 1.0 | 3.0 | 0.00 | 0.00 | 0.00 | 42 | 1015.0 |
| 20260830231559 | 93 | 279 | 1.0 | 3.0 | 0.00 | 0.00 | 0.00 | 42 | 1015.0 |
| 20260830230519 | 93 | 280 | 1.0 | 2.0 | 0.00 | 0.00 | 0.00 | 40 | 1015.0 |
| 20260830225559 | 93 | 282 | 1.0 | 4.0 | 0.00 | 0.00 | 0.00 | 39 | 1014.9 |
| 20260830224519 | 94 | 253 | 1.0 | 2.0 | 0.00 | 0.00 | 0.00 | 39 | 1014.9 |
| 20260830223519 | 95 | 294 | 1.0 | 2.0 | 0.00 | 0.00 | 0.00 | 38 | 1014.9 |
| 20260830222639 | 95 | 281 | 0.0 | 2.0 | 0.00 | 0.00 | 0.00 | 38 | 1014.9 |
| 20260830221600 | 96 | 281 | 1.0 | 5.0 | 0.00 | 0.00 | 0.00 | 37 | 1014.9 |
| 20260830220519 | 97 | 281 | 1.0 | 3.0 | 0.00 | 0.00 | 0.00 | 37 | 1014.9 |
| 20260830215519 | 97 | 274 | 1.0 | 5.0 | 0.00 | 0.00 | 0.00 | 37 | 1014.8 |
| 20260830214520 | 99 | 266 | 1.0 | 3.0 | 0.00 | 0.00 | 0.00 | 35 | 1014.8 |
| 20260830213557 | 98 | 302 | 1.0 | 2.0 | 0.00 | 0.00 | 0.00 | 35 | 1014.8 |
| 20260830212518 | 98 | 277 | 1.0 | 3.0 | 0.00 | 0.00 | 0.00 | 34 | 1014.9 |
| 20260830211522 | 98 | 287 | 1.0 | 4.0 | 0.00 | 0.00 | 0.00 | 36 | 1015.0 |
| 20260830210600 | 97 | 289 | 1.0 | 5.0 | 0.00 | 0.00 | 0.00 | 36 | 1015.1 |
| 20260830205557 | 97 | 287 | 2.0 | 5.0 | 0.00 | 0.00 | 0.00 | 35 | 1015.1 |
| 20260830204529 | 97 | 280 | 1.0 | 3.0 | 0.00 | 0.00 | 0.00 | 34 | 1015.1 |
| 20260830203530 | 97 | 285 | 1.0 | 2.0 | 0.00 | 0.00 | 0.00 | 33 | 1015.1 |
| 20260830202530 | 97 | 278 | 1.0 | 3.0 | 0.00 | 0.00 | 0.00 | 34 | 1015.3 |
| 20260830201530 | 96 | 295 | 2.0 | 4.0 | 0.00 | 0.00 | 0.00 | 34 | 1015.3 |
| 20260830200530 | 96 | 307 | 1.0 | 3.0 | 0.00 | 0.00 | 0.00 | 36 | 1015.5 |
| 20260830195530 | 95 | 243 | 1.0 | 3.0 | 0.00 | 0.00 | 0.00 | 35 | 1015.6 |
| 20260830194543 | 95 | 285 | 1.0 | 3.0 | 0.00 | 0.00 | 0.00 | 36 | 1015.6 |
| 20260830193530 | 95 | 288 | 1.0 | 2.0 | 0.00 | 0.00 | 0.00 | 36 | 1015.8 |
| 20260830192610 | 95 | 289 | 1.0 | 4.0 | 0.00 | 0.00 | 0.00 | 37 | 1015.9 |
| 20260830191530 | 94 | 301 | 1.0 | 3.0 | 0.00 | 0.00 | 0.00 | 36 | 1016.1 |
| 20260830190530 | 94 | 266 | 1.0 | 3.0 | 0.00 | 0.00 | 0.00 | 37 | 1016.2 |
| 20260830185530 | 93 | 262 | 1.0 | 3.0 | 0.00 | 0.00 | 0.00 | 38 | 1016.2 |
| 20260830184531 | 93 | 286 | 2.0 | 4.0 | 0.00 | 0.00 | 0.00 | 39 | 1016.2 |
| 20260830183531 | 92 | 279 | 1.0 | 2.0 | 0.00 | 0.00 | 0.00 | 37 | 1016.3 |
| 20260830182531 | 92 | 291 | 2.0 | 4.0 | 0.00 | 0.00 | 0.00 | 39 | 1016.4 |
| 20260830181531 | 92 | 42 | 1.0 | 3.0 | 0.00 | 0.00 | 0.00 | 39 | 1016.5 |
| 20260830180516 | 92 | 270 | 1.0 | 4.0 | 0.00 | 0.00 | 0.00 | 40 | 1016.6 |
| 20260830175516 | 91 | 285 | 1.0 | 4.0 | 0.00 | 0.00 | 0.00 | 41 | 1016.7 |
| 20260830174516 | 91 | 278 | 0.0 | 2.0 | 0.00 | 0.00 | 0.00 | 41 | 1016.8 |
| 20260830173532 | 90 | 292 | 1.0 | 3.0 | 0.00 | 0.00 | 0.00 | 42 | 1017.0 |
| 20260830172532 | 90 | 258 | 1.0 | 3.0 | 0.00 | 0.00 | 0.00 | 42 | 1017.0 |
| 20260830171532 | 89 | 301 | 1.0 | 3.0 | 0.00 | 0.00 | 0.00 | 43 | 1017.3 |
| 20260830170532 | 89 | 297 | 2.0 | 4.0 | 0.00 | 0.00 | 0.00 | 42 | 1017.5 |
| 20260830165532 | 88 | 280 | 2.0 | 4.0 | 0.00 | 0.00 | 0.00 | 44 | 1017.6 |
| 20260830164517 | 88 | 288 | 2.0 | 3.0 | 0.00 | 0.00 | 0.00 | 46 | 1017.7 |
| 20260830163557 | 87 | 293 | 2.0 | 3.0 | 0.00 | 0.00 | 0.00 | 46 | 1017.7 |
| 20260830162517 | 86 | 285 | 1.0 | 3.0 | 0.00 | 0.00 | 0.00 | 48 | 1017.7 |
| 20260830161557 | 86 | 292 | 1.0 | 3.0 | 0.00 | 0.00 | 0.00 | 50 | 1017.7 |
| 20260830160518 | 85 | 273 | 2.0 | 3.0 | 0.00 | 0.00 | 0.00 | 51 | 1017.6 |
| 20260830155517 | 84 | 280 | 1.0 | 3.0 | 0.00 | 0.00 | 0.00 | 54 | 1017.6 |
| 20260830154533 | 83 | 278 | 1.0 | 5.0 | 0.00 | 0.00 | 0.00 | 56 | 1017.4 |
| 20260830153558 | 0 | 280 | 1.0 | 3.0 | 0.00 | 0.00 | 0.00 | ||
| 20260830152518 | 82 | 280 | 2.0 | 3.0 | 0.00 | 0.00 | 0.00 | 56 | 1017.2 |
| 20260830151518 | 81 | 275 | 1.0 | 3.0 | 0.00 | 0.00 | 0.00 | 58 | 1017.4 |
| 20260830150518 | 80 | 282 | 2.0 | 4.0 | 0.00 | 0.00 | 0.00 | 59 | 1017.4 |
| 20260830145518 | 80 | 273 | 2.0 | 3.0 | 0.00 | 0.00 | 0.00 | 61 | 1017.5 |